Location: Bouchavesnes-Bergen
(49.9859°N, 2.9203°E)
Time: 00:07:28
(UTC+00:00)

PAYLOAD A - Pass Details

Date: 09 March 2021
Orbit: 692 x 831 km, 98.4° (Epoch: 12 April)

Event Time Altitude Azimuth Distance (km) Brightness Sun altitude
Rises 03:55:00 0° 13° (NNE) 3,310 7.8 -22.9°
Reaches altitude 10° 03:57:18 10° 12° (NNE) 2,394 7.0 -22.5°
Maximum altitude 04:02:38 79° 288° (WNW) 841 4.0 -21.7°
Enters shadow 04:05:05 34° 206° (SSW) 1,339 4.9 -21.4°
